This demonstration page uses our WeatherBlox Daily Observations layout. Learn more.

Left ArrowRight Arrow

Hourly Observations for November 2, 2021

Temp ( °F °C ) Dew Point ( °F °C ) Humidity (%) Winds ( mph kmh ) Pressure ( in mb ) Visibility ( mi km ) Precip ( " mm )
12:53 am 00:53 Clear 48 8.9 47 8.3 96 96 Calm 30.19 1022 10 16 0.00 0.00
1:53 am 01:53 Clear 48 8.9 46 7.8 93 93 Calm 30.17 1022 8 13 0.00 0.00
2:53 am 02:53 Clear 48 8.9 45 7.2 89 89 Calm 30.18 1022 10 16 0.00 0.00
3:53 am 03:53 Clear 49 9.4 47 8.3 93 93 Calm 30.17 1022 10 16 0.00 0.00
4:53 am 04:53 Clear 47 8.3 45 7.2 93 93 Calm 30.18 1022 10 16 0.00 0.00
5:53 am 05:53 Clear 47 8.3 45 7.2 93 93 Calm 30.19 1023 10 16 0.00 0.00
6:53 am 06:53 Clear 47 8.3 44 6.7 90 90 Calm 30.21 1023 10 16 0.00 0.00
7:53 am 07:53 Clear 46 7.8 44 6.7 93 93 Calm 30.22 1023 10 16 0.00 0.00
8:53 am 08:53 Sunny with Light Rain 48 8.9 46 7.8 93 93 Calm 30.22 1024 10 16 0.00 0.00
9:53 am 09:53 Sunny 52 11.1 47 8.3 83 83 Calm 30.24 1024 10 16 0.00 0.00
10:53 am 10:53 Sunny 57 13.9 46 7.8 67 67 NNW 6 9 30.24 1024 10 16 0.00 0.00
11:53 am 11:53 Mostly Sunny 63 17.2 46 7.8 54 54 VRB 6 9 30.25 1024 10 16 0.00 0.00
12:53 pm 12:53 Sunny 66 18.9 41 5 40 40 NW 12 19 30.23 1024 10 16 0.00 0.00
1:53 pm 13:53 Sunny 66 18.9 41 5 40 40 NW 8 13 30.21 1023 10 16 0.00 0.00
2:53 pm 14:53 Mostly Cloudy 67 19.4 44 6.7 44 44 NW 8 13 30.18 1022 10 16 0.00 0.00
3:53 pm 15:53 Sunny 66 18.9 45 7.2 47 47 WNW 13 20 30.17 1022 10 16 0.00 0.00
4:53 pm 16:53 Sunny 66 18.9 44 6.7 45 45 WNW 15 24 30.17 1022 10 16 0.00 0.00
5:53 pm 17:53 Sunny 64 17.8 45 7.2 50 50 NNW 7 11 30.17 1022 10 16 0.00 0.00
6:53 pm 18:53 Clear 60 15.6 45 7.2 58 58 NNW 7 11 30.19 1022 10 16 0.00 0.00
7:53 pm 19:53 Clear 57 13.9 44 6.7 62 62 N 6 9 30.20 1023 10 16 0.00 0.00
8:53 pm 20:53 Clear 55 12.8 42 5.6 62 62 NNW 5 7 30.22 1023 10 16 0.00 0.00
9:53 pm 21:53 Clear 52 11.1 42 5.6 69 69 NNW 5 7 30.22 1023 10 16 0.00 0.00
10:53 pm 22:53 Clear 50 10 42 5.6 74 74 VRB 5 7 30.22 1023 10 16 0.00 0.00
11:53 pm 23:53 Clear 48 8.9 41 5 77 77 NNW 6 9 30.23 1024 10 16 0.00 0.00

Powered by AerisWeather